CW9507 Weather Reports


Display with metric or nautical units.
time (UTC)temp
F
wind
direction
speed
MPH
gust
MPH
rain 1hr
in
rain 24hr
in
rain mn
in
humidity
%
barometer
mb
20260510224607 59 306 0.0 1.0 0.00 0.25 0.12 38 1018.1
20260510223115 59 309 0.0 0.0 0.00 0.25 0.12 41 1018.0
20260510221558 59 331 0.0 4.0 0.00 0.25 0.12 40 1018.0
20260510220057 60 192 0.0 0.0 0.02 0.25 0.12 38 1017.8
20260510214602 60 322 0.0 2.0 0.02 0.32 0.12 41 1017.7
20260510213104 61 220 0.0 4.0 0.02 0.32 0.12 40 1017.6
20260510211601 60 231 0.0 7.0 0.02 0.32 0.12 39 1017.4
20260510210052 61 284 0.0 3.0 0.01 0.30 0.10 37 1017.2
20260510204557 60 223 0.0 2.0 0.01 0.39 0.10 40 1017.2
20260510203052 61 207 0.0 7.0 0.03 0.39 0.10 39 1017.2
20260510201555 60 344 1.0 9.0 0.03 0.39 0.10 37 1017.2
20260510200050 61 335 0.0 5.0 0.02 0.38 0.09 35 1017.3
20260510194550 61 223 0.0 8.0 0.03 0.82 0.09 39 1017.5
20260510193054 61 259 0.0 5.0 0.01 0.80 0.07 39 1017.5
20260510191547 61 214 0.0 5.0 0.02 0.80 0.07 43 1017.6
20260510190047 61 247 0.0 9.0 0.02 0.80 0.07 38 1017.7
20260510184551 60 215 0.0 9.0 0.01 1.31 0.06 37 1017.6
20260510183044 60 304 0.0 11.0 0.01 1.31 0.06 38 1017.6
20260510181543 60 341 0.0 4.0 0.00 1.30 0.05 37 1017.4
20260510180045 60 261 0.0 2.0 0.00 1.30 0.05 38 1017.1
20260510174539 60 223 0.0 3.0 0.04 1.64 0.05 42 1017.1
20260510173044 60 355 0.0 4.0 0.04 1.64 0.05 41 1017.2
20260510171546 59 288 0.0 6.0 0.04 1.64 0.05 37 1017.2
20260510170036 59 223 0.0 6.0 0.04 1.64 0.05 40 1017.3
20260510164531 58 219 0.0 4.0 0.00 1.86 0.01 42 1017.3
20260510163031 58 241 0.0 4.0 0.00 1.86 0.01 41 1017.5
20260510161530 57 240 0.0 1.0 0.01 1.86 0.01 42 1017.5
20260510160026 57 265 0.0 8.0 0.01 1.86 0.01 44 1017.4
20260510154525 57 360 0.0 7.0 0.01 2.06 0.01 44 1017.3
20260510153037 56 5 0.0 4.0 0.01 2.06 0.01 43 1017.1
20260510151531 56 306 0.0 8.0 0.00 2.04 0.00 45 1017.1
20260510150021 55 207 0.0 2.0 0.00 2.04 0.00 44 1016.9
20260510144520 55 291 0.0 1.0 0.00 2.10 0.00 46 1016.8
20260510143022 54 360 0.0 0.0 0.00 2.10 0.00 44 1016.6
20260510141518 54 318 0.0 5.0 0.00 2.10 0.00 44 1016.6
20260510140016 53 180 0.0 0.0 0.00 2.10 0.00 48 1016.4
20260510134515 53 159 0.0 0.0 0.00 2.15 0.00 48 1016.5
20260510133013 52 23 0.0 0.0 0.00 2.15 0.00 54 1016.5
20260510131512 51 5 0.0 1.0 0.00 2.15 0.00 54 1016.5
20260510130030 50 344 0.0 2.0 0.00 2.15 0.00 57 1016.4
20260510124509 49 360 0.0 3.0 0.00 2.15 0.00 57 1016.2
20260510123007 48 288 0.0 1.0 0.00 2.15 0.00 60 1015.9
20260510121506 47 335 0.0 2.0 0.00 2.15 0.00 62 1015.8
20260510120016 47 341 0.0 1.0 0.00 2.15 0.00 68 1015.6
20260510114510 46 309 0.0 0.0 0.00 2.15 0.00 72 1015.5
20260510113001 44 196 0.0 0.0 0.00 2.15 0.00 81 1015.3
20260510111559 43 196 0.0 0.0 0.00 2.15 0.00 79 1014.9
20260510110055 43 196 0.0 0.0 0.00 2.15 0.00 76 1014.6
20260510104557 43 345 0.0 0.0 0.00 2.17 0.00 72 1014.2
20260510103052 43 345 0.0 0.0 0.00 2.17 0.00 72 1014.1
20260510101550 44 345 0.0 1.0 0.00 2.17 0.00 72 1014.0
20260510100045 44 350 0.0 0.0 0.00 2.17 0.00 71 1013.7
20260510094544 44 15 0.0 1.0 0.00 2.17 0.00 72 1013.5
20260510093044 44 80 0.0 1.0 0.00 2.17 0.00 74 1013.4
20260510091540 44 355 0.0 3.0 0.00 2.17 0.00 76 1013.2
20260510090038 45 231 0.0 0.0 0.00 2.17 0.00 81 1013.0
20260510084536 45 306 0.0 0.0 0.00 2.17 0.00 83 1012.6
20260510083031 46 140 0.0 0.0 0.00 2.17 0.00 84 1012.3
20260510081528 47 102 0.0 0.0 0.00 2.17 0.00 82 1011.8
20260510080023 47 102 0.0 0.0 0.00 2.17 0.00 78 1011.4
20260510074521 48 102 0.0 0.0 0.00 2.17 0.00 75 1010.9
20260510073018 48 102 0.0 0.0 0.00 2.17 0.00 78 1010.7
20260510071519 48 102 0.0 0.0 0.00 2.17 0.00 80 1010.6
20260510070016 48 285 0.0 0.0 0.00 2.17 0.00 81 1010.1
20260510064526 48 285 0.0 0.0 0.00 2.17 0.00 78 1009.9
20260510063008 49 285 0.0 0.0 0.00 2.17 0.00 76 1009.8
20260510061514 50 285 0.0 0.0 0.00 2.17 0.00 76 1009.7
20260510060002 51 285 0.0 0.0 0.00 2.17 0.00 78 1009.6
20260510054600 51 285 0.0 0.0 0.00 2.17 0.00 75 1009.4
20260510053057 51 285 0.0 0.0 0.00 2.17 0.00 69 1009.4
20260510051557 52 285 0.0 0.0 0.00 2.17 0.00 72 1009.3
20260510050055 54 285 0.0 0.0 0.00 2.17 0.00 67 1009.0
20260510044547 55 285 0.0 0.0 0.00 2.17 0.00 63 1008.8
20260510043043 56 285 0.0 0.0 0.00 2.17 0.00 57 1008.5
20260510041540 56 288 0.0 2.0 0.00 2.17 0.00 56 1008.2
20260510040119 57 308 0.0 8.0 0.00 2.17 0.00 58 1008.0
20260510034536 58 315 0.0 0.0 0.02 2.17 2.17 57 1007.7
20260510033038 59 9 0.0 2.0 0.02 2.17 2.17 55 1007.5
20260510031533 60 260 0.0 1.0 0.02 2.17 2.17 55 1007.4
20260510030031 60 341 0.0 6.0 0.02 2.17 2.17 54 1007.0
20260510024531 60 267 0.0 0.0 0.00 2.15 2.15 61 1006.7
20260510023033 58 5 0.0 6.0 0.00 2.15 2.15 71 1006.2
20260510021532 59 216 0.0 0.0 0.00 2.15 2.15 80 1005.4
20260510020030 60 170 0.0 0.0 0.00 2.15 2.15 81 1004.8
20260510014529 61 170 0.0 0.0 0.00 2.15 2.15 78 1004.4
20260510013028 61 170 0.0 0.0 0.00 2.15 2.15 75 1004.3
20260510011529 62 140 0.0 0.0 0.00 2.15 2.15 74 1004.1
20260510010027 63 140 0.0 1.0 0.00 2.15 2.15 69 1003.9
20260510004527 64 140 0.0 0.0 0.00 2.19 2.15 64 1003.8
20260510003027 64 146 0.0 0.0 0.01 2.19 2.15 54 1003.7
20260510001526 66 198 0.0 0.0 0.01 2.19 2.15 54 1003.5
20260510000033 67 189 0.0 0.0 0.03 2.19 2.15 45 1003.4
20260509234537 68 219 0.0 2.0 0.03 2.21 2.15 44 1003.0
20260509233025 69 196 0.0 3.0 0.03 2.20 2.14 42 1002.9
20260509231525 70 238 1.0 8.0 0.07 2.20 2.14 39 1002.9
20260509230023 70 239 0.0 6.0 0.08 2.18 2.12 39 1002.8